INTELSAT 16 (IS-16)

Last updated on Sat Apr 13 2024 01:02:37 GMT+0100 (British Summer Time)

1 36397U 10006A 24103.57720117 -.00000253 00000+0 00000+0 0 9994 2 36397 0.0181 114.3724 0001763 273.3784 305.0923 1.00271516 51677
UTC large
Height (km)
Speed (km/s)
/
Latitude / Longitude
Inclination (degrees)
Orbital Period (minutes)
Azimuth
Elevation
Range (km)
Doppler Factor

Next 0 passes for location: London (51.5072 / 0.1276)

Sorry there are no passes over London.